Kankakee, IL

4:36 AM CDT on October 24, 2017 (GMT -0500)
Greater Kankakee

Weather History for KIKK - May, 2013

Change the Weather History Date:

Monday, May 27, 2013

  Actual Average Record
Temperature  
Mean Temperature 60 °F -  
Max Temperature 66 °F 74 °F 96 °F (2012)
Min Temperature 55 °F 51 °F 32 °F (1992)
Degree Days  
Heating Degree Days 5    
Growing Degree Days 10 (Base 50)    
Moisture  
Dew Point 59 °F    
Average Humidity 96    
Maximum Humidity 100    
Minimum Humidity 86    
Precipitation  
Precipitation 1.21 in - - ()
Sea Level Pressure  
Sea Level Pressure 29.97 in    
Wind  
Wind Speed 10 mph (ESE)    
Max Wind Speed 18 mph    
Max Gust Speed 24 mph    
Visibility 6 miles    
Events Rain , Thunderstorm    
Averages and records for this station are not official NWS values.
T = Trace of Precipitation, MM = Missing Value Source: NWS Daily Summary

Daily Weather History Graph

Daily Weather History Graph

Search for Another Location

Airport or City:

Trip Planner

Search our weather history database for the weather conditions in past years. The results will help you decide how hot, cold, wet, or windy it might be!

Date:

Astronomy

May. 27, 2013 Rise Set
Actual Time 5:23 AM CDT 8:13 PM CDT
Civil Twilight 4:51 AM CDT 8:46 PM CDT
Nautical Twilight 4:10 AM CDT 9:27 PM CDT
Astronomical Twilight 3:23 AM CDT 10:14 PM CDT
Moon 10:52 PM CDT (5/27) 8:01 AM CDT (5/27)
Length of Visible Light 15h 55m
Length of Day
14h 50m
Waning Gibbous, 91% of the Moon is Illuminated
May 27
Waning Gibbous
May 31
Last Quarter
Jun 8
New
Jun 16
First Quarter
Jun 23
Full

Hourly Weather History & Observations

Time (CDT) Temp. Dew Point Humidity Pressure Visibility Wind Dir Wind Speed Gust Speed Precip Events Conditions
12:15 AM 55.4 °F 54.5 °F 97% 30.13 in 4.0 mi SE 9.2 mph - 0.08 in Rain , Thunderstorm Rain
12:35 AM 55.6 °F 54.7 °F 97% 30.13 in 3.0 mi ESE 9.2 mph - 0.15 in Rain , Thunderstorm Heavy Thunderstorms and Rain
12:55 AM 55.8 °F 55.0 °F 97% 30.11 in 3.0 mi SE 12.7 mph - 0.24 in Rain , Thunderstorm Thunderstorms and Rain
1:15 AM 55.9 °F 55.4 °F 98% 30.11 in 3.0 mi SE 12.7 mph - 0.06 in Rain , Thunderstorm Rain
1:35 AM 56.1 °F 55.6 °F 98% 30.11 in 3.0 mi SE 10.4 mph 16.1 mph 0.12 in Rain , Thunderstorm Heavy Thunderstorms and Rain
1:55 AM 56.3 °F 55.8 °F 98% 30.10 in 3.0 mi ESE 8.1 mph - 0.18 in Rain , Thunderstorm Rain
2:15 AM 56.5 °F 56.3 °F 99% 30.09 in 3.0 mi ESE 8.1 mph - 0.05 in Rain Rain
2:35 AM 57.2 °F 56.8 °F 99% 30.07 in 4.0 mi ESE 10.4 mph - 0.09 in Rain Rain
2:55 AM 57.4 °F 57.2 °F 99% 30.07 in 5.0 mi ESE 9.2 mph - 0.12 in Rain Rain
3:15 AM 57.7 °F 57.2 °F 98% 30.07 in 5.0 mi ESE 5.8 mph - 0.01 in Rain Light Rain
3:35 AM 58.3 °F 57.6 °F 97% 30.07 in 4.0 mi ESE 10.4 mph - 0.10 in Rain Heavy Rain
3:55 AM 58.1 °F 57.6 °F 98% 30.07 in 5.0 mi ESE 9.2 mph - 0.24 in Rain Light Rain
4:15 AM 58.1 °F 57.4 °F 97% 30.06 in 7.0 mi ESE 11.5 mph - 0.01 in Rain Light Rain
4:35 AM 57.7 °F 57.2 °F 98% 30.05 in 7.0 mi ESE 10.4 mph 17.3 mph 0.03 in Rain Light Rain
4:55 AM 57.6 °F 57.2 °F 99% 30.05 in 5.0 mi ESE 9.2 mph - 0.06 in Rain Light Rain
5:15 AM 57.9 °F 57.2 °F 97% 30.05 in 7.0 mi ESE 9.2 mph 18.4 mph 0.02 in Rain Light Rain
5:35 AM 57.6 °F 56.5 °F 96% 30.04 in 10.0 mi ESE 13.8 mph 17.3 mph 0.03 in   Overcast
5:55 AM 57.4 °F 56.5 °F 97% 30.04 in 5.0 mi ESE 10.4 mph - 0.04 in Rain Light Rain
6:15 AM 57.7 °F 56.1 °F 94% 30.04 in 10.0 mi ESE 15.0 mph - N/A   Overcast
6:35 AM 57.6 °F 56.1 °F 95% 30.04 in 10.0 mi ESE 11.5 mph 17.3 mph N/A   Overcast
6:55 AM 57.4 °F 55.9 °F 95% 30.04 in 10.0 mi ESE 11.5 mph - N/A Rain Rain
7:15 AM 57.4 °F 55.9 °F 95% 30.04 in 10.0 mi ESE 9.2 mph 18.4 mph N/A   Light Drizzle
7:35 AM 57.6 °F 55.9 °F 94% 30.03 in 10.0 mi ESE 13.8 mph 19.6 mph N/A   Overcast
7:55 AM 57.6 °F 55.9 °F 94% 30.03 in 10.0 mi ESE 13.8 mph - N/A Rain Rain
8:15 AM 57.6 °F 56.3 °F 96% 30.03 in 7.0 mi ESE 16.1 mph - N/A   Light Drizzle
8:35 AM 57.6 °F 56.5 °F 96% 30.02 in 5.0 mi ESE 16.1 mph 20.7 mph N/A Rain Light Rain
8:55 AM 58.1 °F 56.5 °F 94% 30.01 in 7.0 mi ESE 17.3 mph 24.2 mph 0.01 in   Overcast
9:15 AM 58.5 °F 56.5 °F 93% 30.01 in 7.0 mi ESE 15.0 mph 20.7 mph N/A   Overcast
9:35 AM 57.6 °F 56.1 °F 95% 30.03 in 3.0 mi ESE 12.7 mph - 0.07 in Rain Heavy Rain
9:55 AM 56.5 °F 55.8 °F 97% 30.02 in 2.5 mi ESE 13.8 mph 17.3 mph 0.27 in Rain Light Rain
10:15 AM 57.4 °F 56.3 °F 96% 30.01 in 5.0 mi ESE 15.0 mph - N/A   Overcast
10:35 AM 59.5 °F 57.7 °F 94% 29.99 in 7.0 mi ESE 17.3 mph 21.9 mph N/A   Mostly Cloudy
10:55 AM 60.4 °F 57.6 °F 90% 29.97 in 10.0 mi ESE 18.4 mph - N/A   Mostly Cloudy
11:15 AM 61.7 °F 58.1 °F 88% 29.97 in 10.0 mi ESE 13.8 mph 23.0 mph N/A   Overcast
11:35 AM 61.7 °F 58.1 °F 88% 29.97 in 10.0 mi ESE 16.1 mph 20.7 mph N/A   Overcast
11:55 AM 62.2 °F 58.1 °F 86% 29.96 in 10.0 mi ESE 9.2 mph 17.3 mph N/A   Overcast
12:15 PM 62.1 °F 59.0 °F 90% 29.96 in 10.0 mi ESE 9.2 mph - N/A   Overcast
12:35 PM 62.1 °F 59.4 °F 91% 29.96 in 7.0 mi ESE 8.1 mph - N/A   Overcast
12:55 PM 62.2 °F 61.0 °F 96% 29.97 in 2.0 mi ESE 4.6 mph - N/A   Drizzle
1:15 PM 62.2 °F 61.5 °F 97% 29.96 in 1.8 mi East 4.6 mph - 0.01 in   Drizzle
1:35 PM 62.2 °F 61.7 °F 98% 29.96 in 1.5 mi ENE 4.6 mph - 0.02 in   Heavy Drizzle
1:55 PM 62.1 °F 61.7 °F 99% 29.96 in 1.5 mi NNE 3.5 mph - 0.03 in   Light Drizzle
2:15 PM 61.9 °F 61.5 °F 99% 29.95 in 2.5 mi NE 5.8 mph - N/A   Overcast
2:35 PM 61.7 °F 61.2 °F 98% 29.95 in 3.0 mi ENE 9.2 mph - N/A   Overcast
2:55 PM 62.2 °F 61.3 °F 97% 29.94 in 4.0 mi East 6.9 mph - N/A   Overcast
3:15 PM 62.8 °F 62.1 °F 97% 29.92 in 4.0 mi ENE 8.1 mph - N/A   Overcast
3:35 PM 64.4 °F 62.8 °F 94% 29.92 in 5.0 mi ENE 8.1 mph - N/A   Mostly Cloudy
3:55 PM 65.3 °F 64.0 °F 96% 29.91 in 5.0 mi ENE 5.8 mph - N/A Thunderstorm Mostly Cloudy
4:15 PM 64.9 °F 63.5 °F 95% 29.91 in 5.0 mi ENE 4.6 mph - N/A   Overcast
4:35 PM 65.8 °F 63.9 °F 93% 29.90 in 7.0 mi NE 3.5 mph - N/A   Overcast
4:55 PM 65.8 °F 64.2 °F 94% 29.89 in 7.0 mi ENE 4.6 mph - N/A   Overcast
5:15 PM 65.5 °F 63.9 °F 94% 29.87 in 7.0 mi ENE 5.8 mph - N/A   Overcast
5:35 PM 64.9 °F 63.5 °F 95% 29.87 in 7.0 mi East 6.9 mph - N/A   Mostly Cloudy
5:55 PM 64.6 °F 63.5 °F 96% 29.84 in 4.0 mi East 9.2 mph - N/A Rain , Thunderstorm Rain
6:15 PM 64.4 °F 63.5 °F 97% 29.87 in 4.0 mi NE 3.5 mph - 0.01 in Rain , Thunderstorm Light Thunderstorms and Rain
6:35 PM 64.4 °F 63.5 °F 97% 29.88 in 4.0 mi North 3.5 mph - 0.01 in Rain Light Rain
6:55 PM 64.4 °F 63.9 °F 98% 29.88 in 3.0 mi ENE 3.5 mph - 0.01 in   Overcast
7:15 PM 64.2 °F 63.5 °F 98% 29.87 in 3.0 mi ENE 9.2 mph - N/A   Overcast
7:35 PM 63.3 °F 62.6 °F 97% 29.87 in 4.0 mi East 8.1 mph - N/A   Overcast
7:55 PM 62.6 °F 62.1 °F 98% 29.87 in 4.0 mi East 8.1 mph - N/A   Overcast
8:15 PM 62.1 °F 61.7 °F 99% 29.86 in 3.0 mi East 4.6 mph - N/A   Mostly Cloudy
8:35 PM 62.1 °F 61.7 °F 99% 29.87 in 4.0 mi ESE 5.8 mph - N/A   Overcast
8:55 PM 62.2 °F 61.7 °F 98% 29.86 in 5.0 mi ESE 5.8 mph - N/A   Overcast
9:15 PM 62.2 °F 61.7 °F 98% 29.86 in 4.0 mi East 4.6 mph - N/A   Overcast
9:35 PM 62.1 °F 61.7 °F 99% 29.87 in 3.0 mi East 5.8 mph - N/A   Overcast
9:55 PM 61.7 °F 61.7 °F 100% 29.88 in 3.0 mi East 5.8 mph - N/A   Overcast
10:15 PM 62.1 °F 61.9 °F 99% 29.88 in 4.0 mi ESE 5.8 mph - N/A   Overcast
10:35 PM 61.9 °F 61.7 °F 99% 29.89 in 3.0 mi SE 5.8 mph - N/A   Overcast
10:55 PM 61.9 °F 61.7 °F 99% 29.88 in 2.5 mi SE 6.9 mph - N/A   Mostly Cloudy
11:15 PM 62.8 °F 62.6 °F 99% 29.89 in 7.0 mi SSE 6.9 mph - N/A Thunderstorm Mostly Cloudy
11:35 PM 63.7 °F 62.6 °F 96% 29.89 in 10.0 mi South 10.4 mph - N/A Rain Light Rain
11:55 PM 63.5 °F 62.4 °F 96% 29.89 in 10.0 mi South 10.4 mph 16.1 mph 0.01 in Thunderstorm Overcast